Probability
0 1 0 0 0 0 1 3 7 8 8 12 20 30 38 39 32 22 12 4 0 0 0 0 0 0 0 0 0 0 0 0 0 0 0 0 0 0 0 0 0 0 0
1 1 0 0 1 1 1 3 6 6 8 13 21 33 44 48 42 33 20 8 1 0 0 0 0 0 0 0 0 0 0 0 0 0 0 0 0 0 0 0 0 0 0
0 0 0 1 2 2 2 2 4 5 6 9 19 35 50 56 54 48 35 18 6 2 1 1 0 0 0 0 0 0 0 0 0 0 0 0 0 0 0 0 0 0 0
0 0 0 1 1 1 1 1 2 3 3 4 11 27 44 53 56 53 43 27 13 5 2 1 0 0 0 0 0 0 0 0 0 0 0 0 0 0 0 0 0 0 0
0 0 0 0 1 1 0 0 0 1 1 1 4 14 28 39 44 46 42 33 20 9 3 1 0 0 0 0 0 0 0 0 0 0 0 0 0 0 0 0 0 0 0
0 0 0 0 1 1 0 0 0 0 0 0 1 6 14 22 29 34 34 31 24 14 7 4 2 1 1 1 1 0 0 0 0 0 0 0 0 0 0 0 0 0 0
0 0 0 0 1 1 0 0 0 0 0 0 0 3 7 11 16 20 21 21 19 14 9 6 4 2 2 2 1 0 0 0 0 0 0 0 0 0 0 0 0 0 0
0 0 0 0 0 0 0 0 0 0 0 0 0 1 3 5 6 7 8 9 10 9 7 5 3 2 1 1 1 0 0 0 0 0 0 0 0 0 0 0 0 0 0
0 0 0 0 0 0 0 0 0 0 0 0 0 0 1 1 1 1 1 2 3 4 4 3 1 1 0 0 0 0 0 0 0 0 0 0 0 0 0 0 0 0 0
0 0 0 0 0 0 0 0 0 0 0 0 0 0 0 0 0 0 0 0 0 1 2 1 0 0 0 0 0 0 0 0 0 0 0 0 0 0 0 0 0 0 0
0 0 0 0 0 0 0 0 0 0 0 0 0 0 0 0 0 0 0 0 0 1 1 0 0 0 0 0 0 0 0 0 0 0 0 0 0 0 0 0 0 0 0
0 0 0 0 0 0 0 0 0 0 0 0 0 0 0 0 0 0 0 0 0 0 0 0 0 0 0 0 0 0 0 0 0 0 0 0 0 0 0 0 0 0 0
0 0 0 0 0 0 0 0 0 0 0 0 0 0 0 0 0 0 0 0 0 0 0 0 0 0 0 0 0 0 0 0 0 0 0 0 0 0 0 0 0 0 0
0 0 0 0 0 0 0 0 0 0 0 0 0 0 0 0 0 0 0 0 0 0 0 0 0 0 0 0 0 0 0 0 0 0 0 0 0 0 0 0 0 0 0
0 0 0 0 0 0 0 0 0 0 0 0 0 0 0 0 0 0 0 0 0 0 0 0 0 0 0 0 0 0 0 0 0 0 0 0 0 0 0 0 0 0 0
0 0 0 0 0 0 0 0 0 0 0 0 0 0 0 0 0 0 0 0 0 0 0 0 0 0 0 0 0 0 0 0 0 0 0 0 0 0 0 0 0 0 0
0 0 0 0 0 0 0 0 0 0 0 0 0 0 0 0 0 0 0 0 0 0 0 0 0 0 0 0 0 0 0 0 0 0 0 0 0 0 0 0 0 0 0
0 0 0 0 0 0 0 0 0 0 0 0 0 0 0 0 0 0 0 0 0 0 0 0 0 0 0 0 0 0 0 0 0 0 0 0 0 0 0 0 0 0 0
0 0 0 0 0 0 0 0 0 0 0 0 0 0 0 0 0 0 0 0 0 0 0 0 0 0 0 0 0 0 0 0 0 0 0 0 0 0 0 0 0 0 0
0 0 0 0 0 0 0 0 0 0 0 0 0 0 0 0 0 0 0 0 0 0 0 0 0 0 0 0 0 0 0 0 0 0 0 0 0 0 0 0 0 0 0
0 0 0 0 0 0 0 0 0 0 0 0 0 0 0 0 0 0 0 0 0 0 0 0 0 0 0 0 0 0 0 0 0 0 0 0 0 0 0 0 0 0 0
0 0 0 0 0 0 0 0 0 0 0 0 0 0 0 0 0 0 0 0 0 0 0 0 0 0 0 0 0 0 0 0 0 0 0 0 0 0 0 0 0 0 0
0 0 0 0 0 0 0 0 0 0 0 0 0 0 0 0 0 0 0 0 0 0 0 0 0 0 0 0 0 0 0 0 0 0 0 0 0 0 0 0 0 0 0
0 0 0 0 0 0 0 0 0 0 0 0 0 0 0 0 0 0 0 0 0 0 0 0 0 0 0 0 0 0 0 0 0 0 0 0 0 0 0 0 0 0 0
0 0 0 0 0 0 0 0 0 0 0 0 0 0 0 0 0 0 0 0 0 0 0 0 0 0 0 0 0 0 0 0 0 0 0 0 0 0 0 0 0 0 0
0 0 0 0 0 0 0 0 0 0 0 0 0 0 0 0 0 0 0 0 0 0 0 0 0 0 0 0 0 0 0 0 0 0 0 0 0 0 0 0 0 0 0
Wind_Speed
12 12 12 11 10 10 9 9 9 8 6 2 2 3 4 5 5 5 6 6 6 7 7 5 6 6 5 5 5 3 3 2 2 2 2 2 2 2 2 3 4 5 6
15 14 14 13 12 11 10 8 8 7 6 4 3 3 3 3 4 4 4 5 5 6 7 7 6 6 5 5 4 4 3 2 2 3 2 1 4 3 1 2 4 5 5
15 15 14 12 12 11 11 9 8 8 7 7 3 1 1 1 1 3 4 5 6 6 5 6 5 5 5 5 4 4 5 3 2 2 4 3 3 2 3 1 2 3 4
13 13 13 13 12 11 10 8 8 8 8 7 4 3 4 5 6 4 4 4 5 6 6 6 6 5 4 4 4 4 3 4 3 1 2 2 3 2 2 3 2 2 4
13 13 12 11 10 10 10 9 9 8 8 7 6 4 3 4 3 3 5 4 3 4 5 5 5 4 3 4 4 4 3 3 3 3 2 2 1 2 2 2 3 2 2
13 12 11 10 9 9 9 9 9 9 8 8 6 4 2 2 3 4 5 4 3 3 4 4 4 4 4 4 4 4 4 3 3 3 3 3 3 3 3 4 3 2 3
12 11 11 10 10 10 9 9 8 8 8 8 7 6 3 0 2 3 4 4 3 3 4 4 3 3 3 3 3 4 3 4 4 4 3 3 3 3 3 3 2 2 2
11 11 11 9 9 9 9 8 8 7 8 7 6 6 5 2 2 2 2 3 2 3 4 4 3 3 3 3 3 3 3 3 3 4 4 3 3 3 3 4 3 2 2
12 12 11 9 8 8 8 8 7 7 7 7 6 6 6 5 5 4 4 4 3 3 4 4 4 3 3 3 3 2 3 3 3 3 4 3 3 3 3 3 4 4 3
11 12 11 10 8 7 7 7 6 6 6 7 6 5 6 5 5 5 5 4 4 3 3 2 2 2 1 1 2 2 3 4 3 3 4 3 2 3 3 3 3 3 4
11 10 9 9 8 7 7 7 7 7 7 6 6 6 6 5 5 5 5 4 4 3 2 1 1 1 0 1 2 3 4 4 4 3 4 4 3 3 2 2 2 3 3
9 9 9 8 8 7 7 7 7 7 6 6 5 5 5 5 6 5 5 5 4 4 3 2 2 1 1 1 0 2 3 4 4 4 4 4 3 3 2 2 3 2 3
8 7 7 7 7 7 7 6 6 6 6 6 6 6 6 6 6 5 5 5 4 4 4 3 4 4 3 3 2 2 2 3 3 3 3 4 4 3 2 2 2 2 2
7 6 6 6 6 6 6 7 6 6 6 7 7 7 7 6 5 5 5 5 5 5 5 5 5 5 5 4 4 2 1 1 1 2 3 4 5 5 4 3 2 2 2
7 7 6 5 5 6 6 6 7 7 7 7 7 7 6 6 6 7 6 6 7 7 6 6 6 5 4 5 4 4 3 2 0 1 2 3 5 7 5 4 3 3 2
7 7 6 5 4 5 5 5 6 6 6 7 7 7 7 7 7 7 7 7 7 7 7 7 6 7 6 8 7 4 2 1 1 2 2 2 3 5 5 6 6 5 3
6 6 6 4 3 2 3 4 4 5 6 6 7 7 7 7 7 7 7 7 6 6 6 6 5 5 7 11 10 7 2 2 1 2 2 2 2 3 2 3 3 3 3
6 6 6 5 2 2 2 3 4 5 5 6 6 6 6 7 6 7 7 6 4 4 4 5 5 5 9 14 12 9 4 3 2 2 3 3 3 2 3 3 2 1 0
4 4 4 2 2 1 2 3 4 4 5 5 5 5 6 6 7 7 6 5 4 5 4 4 6 6 8 14 13 9 3 3 4 3 3 3 3 3 5 5 4 3 2
4 4 4 3 3 1 2 3 2 3 3 3 3 4 5 6 6 6 5 5 5 5 5 6 6 6 6 13 14 10 3 4 3 4 4 5 4 3 6 5 5 5 2
4 4 4 4 2 0 2 2 1 1 1 3 4 4 4 5 5 5 5 5 6 6 6 6 6 6 8 11 15 12 4 3 3 3 2 2 4 5 5 5 4 4 4
5 5 4 4 3 1 1 1 1 1 2 4 5 5 5 5 5 6 6 6 6 6 6 6 6 5 6 9 11 13 9 5 3 2 2 2 5 7 7 4 5 7 7
5 4 4 4 4 2 1 0 2 1 4 4 4 4 5 5 5 6 6 5 5 5 5 5 5 5 6 7 13 13 12 9 4 3 5 7 8 8 6 8 8 6 4
4 4 4 5 4 3 2 1 1 3 6 5 4 3 4 4 5 5 5 5 5 5 5 5 5 5 5 6 6 6 6 7 6 5 7 9 10 8 8 7 6 5 4
4 4 4 4 4 3 3 3 2 5 6 4 4 3 3 4 4 4 4 4 4 3 3 3 3 4 5 7 9 6 5 4 4 4 5 6 6 6 6 6 6 5 5
3 4 4 3 3 2 3 3 2 5 6 4 3 3 3 2 2 3 3 5 4 6 7 6 4 3 6 9 11 13 13 12 10 8 6 6 6 6 5 5 5 5 5
Wind_Direction
9 10 15 17 20 19 17 16 9 1 357 333 250 213 209 204 199 196 192 188 184 181 176 174 167 161 161 165 154 138 135 133 126 91 32 346 324 261 218 191 182 192 196
4 4 7 10 13 12 8 5 0 350 342 319 278 232 215 215 203 194 181 180 177 176 177 167 164 161 152 154 156 143 138 144 138 130 111 350 331 318 300 189 186 195 193
359 357 0 4 5 6 0 356 350 343 333 322 299 264 196 203 199 203 188 182 173 171 168 163 156 159 158 166 168 159 154 163 174 152 147 161 221 294 320 304 209 195 195
354 353 355 354 356 353 349 347 345 343 335 329 311 253 213 206 205 199 185 180 172 166 160 158 159 166 164 163 173 171 166 156 169 179 183 167 157 166 301 320 319 231 208
347 345 345 341 343 343 345 344 345 346 341 336 324 288 243 224 202 177 168 168 154 159 157 154 156 162 164 164 170 163 169 170 168 171 173 165 161 164 172 265 309 328 271
339 338 336 339 341 342 344 344 345 344 344 343 343 329 271 223 186 178 176 167 154 152 150 144 149 157 158 165 168 166 169 176 177 178 176 167 162 181 181 210 240 271 288
339 339 339 341 343 343 341 340 345 343 344 351 357 355 349 339 181 177 172 161 156 149 152 142 148 152 152 156 156 159 172 177 185 187 186 181 185 171 168 175 206 238 284
343 340 339 340 340 337 338 341 343 344 349 357 0 5 12 30 53 85 119 131 130 125 129 128 134 138 150 152 158 160 180 187 192 195 184 177 194 179 172 169 166 197 286
343 342 340 342 338 334 334 340 348 353 358 3 9 19 25 36 50 64 78 86 91 100 101 113 120 135 154 158 157 161 196 193 191 192 187 184 193 182 179 169 165 167 201
342 345 345 343 340 334 334 348 359 1 5 11 17 26 29 37 49 62 71 76 80 81 83 86 106 121 129 136 153 182 201 184 185 187 179 186 192 186 175 173 176 173 175
337 335 338 341 343 344 351 359 0 6 10 13 17 24 25 30 45 52 59 64 66 69 75 72 75 89 166 203 195 208 194 182 191 193 187 196 185 176 180 169 171 178 172
327 328 336 345 349 353 356 1 4 10 9 10 21 25 25 31 37 37 43 52 52 46 38 34 38 21 2 358 224 240 218 202 195 196 187 197 183 179 179 170 182 185 185
328 331 337 343 351 357 360 4 7 9 13 18 25 27 28 33 32 26 30 38 44 39 35 35 36 37 34 16 329 271 252 233 213 194 184 185 166 175 171 171 174 178 172
330 335 339 343 348 359 8 11 11 11 19 25 27 28 25 27 29 32 35 36 41 47 47 44 43 46 43 28 5 356 323 302 270 209 186 176 171 172 165 158 157 144 128
345 350 354 352 358 10 15 17 18 18 22 30 30 25 24 28 34 38 43 46 49 55 56 58 50 43 44 31 22 16 24 15 44 104 150 180 181 171 163 153 153 135 120
350 355 360 5 16 23 21 24 23 19 26 33 31 29 33 36 37 39 47 54 53 54 57 59 56 47 36 26 27 29 38 28 91 109 124 158 171 170 157 150 152 148 141
343 347 353 3 22 35 39 39 30 29 35 34 31 30 35 38 35 42 46 48 49 52 56 52 49 42 25 27 25 30 49 56 95 134 130 133 134 129 130 147 149 154 154
341 340 344 355 10 40 43 48 41 39 37 33 30 31 36 36 32 37 40 39 42 47 49 44 38 31 24 27 26 29 40 56 62 95 133 138 132 144 160 151 142 139 28
325 322 326 344 18 58 84 75 48 38 39 34 33 32 39 41 38 37 32 28 37 40 41 38 34 29 14 23 29 38 32 51 52 56 81 111 122 145 152 141 133 109 61
329 334 345 7 24 36 124 96 63 44 41 44 50 46 45 48 43 38 34 32 41 41 46 43 34 28 16 19 27 35 40 55 53 44 46 62 80 107 137 140 139 139 141
333 348 2 2 345 287 138 112 81 359 35 67 69 57 53 56 49 41 34 35 39 41 40 39 27 21 15 13 22 29 39 48 60 57 36 25 59 88 111 122 135 151 141
342 352 360 349 337 332 142 135 268 261 90 84 76 59 48 52 51 48 39 34 36 40 32 27 18 9 5 8 12 25 35 49 70 58 27 31 70 79 82 89 109 117 113
344 344 352 351 350 352 141 216 280 146 114 102 91 74 63 52 47 50 45 37 33 37 30 27 20 3 1 2 12 21 31 43 58 53 65 75 74 70 66 73 86 91 95
340 341 356 3 352 343 347 321 331 126 124 121 119 104 85 66 50 45 44 46 35 32 30 27 16 2 359 4 3 6 18 30 45 51 59 65 65 62 58 58 59 62 77
336 347 355 354 347 350 0 5 61 116 120 125 130 125 106 96 74 59 44 42 31 24 27 12 3 5 5 358 13 31 30 34 48 59 57 54 52 54 52 52 51 51 56
345 354 354 356 357 11 13 18 69 122 127 129 140 148 142 126 113 100 61 28 25 21 26 27 23 3 15 26 41 48 50 51 60 67 62 58 55 57 55 56 53 50 51